When you browse on this site, cookies collect data to enhance your experience and personalize the content and advertising you see.
Visit our Privacy Policy to learn more. By continuing to use the site, you agree to this use of cookies and data.
  • In Switzerland
  • List of Countries
  • For 7 days
  • Water Temperature
  • Weather Map
  • Weather Widgets
  • user-avatar
    Login

    Hourly Weather Plymouth

    Today, 29 March, Sunday

    Time Temperature Precipitation Wind Pressure Humidity
    00:00 -1°C° 0 mm 11 mps 774 mmHg 72%
    01:00 -1°C° 0 mm 11 mps 774 mmHg 74%
    02:00 -1°C° 0 mm 11 mps 774 mmHg 75%
    03:00 -2°C° 0 mm 11 mps 774 mmHg 76%
    04:00 -2°C° 0 mm 11 mps 775 mmHg 75%
    05:00 -2°C° 0 mm 10 mps 775 mmHg 75%
    06:00 -3°C° 0 mm 10 mps 776 mmHg 75%
    07:00 -2°C° 0 mm 11 mps 776 mmHg 71%
    08:00 -1°C° 0 mm 11 mps 777 mmHg 67%
    09:00 +1°C° 0 mm 11 mps 777 mmHg 63%
    10:00 +2°C° 0 mm 11 mps 777 mmHg 61%
    11:00 +3°C° 0 mm 11 mps 777 mmHg 59%
    12:00 +4°C° 0 mm 11 mps 777 mmHg 57%
    13:00 +4°C° 0 mm 11 mps 777 mmHg 57%
    14:00 +6°C° 0 mm 10 mps 777 mmHg 57%
    15:00 +6°C° 0 mm 10 mps 776 mmHg 57%
    16:00 +5°C° 0 mm 10 mps 777 mmHg 59%
    17:00 +3°C° 0 mm 9 mps 777 mmHg 62%
    18:00 +2°C° 0 mm 9 mps 777 mmHg 64%
    19:00 +1°C° 0 mm 9 mps 778 mmHg 67%
    20:00 0°C° 0 mm 9 mps 778 mmHg 70%
    21:00 -1°C° 0 mm 9 mps 778 mmHg 73%
    22:00 -1°C° 0 mm 8 mps 778 mmHg 76%
    23:00 -2°C° 0 mm 8 mps 778 mmHg 78%

    Tomorrow, 30 March, Monday

    Time Temperature Precipitation Wind Pressure Humidity
    00:00 -2°C° 0 mm 8 mps 778 mmHg 80%
    01:00 -3°C° 0 mm 7 mps 777 mmHg 82%
    02:00 -3°C° 0 mm 7 mps 777 mmHg 83%
    03:00 -4°C° 0 mm 7 mps 777 mmHg 84%
    04:00 -4°C° 0 mm 6 mps 776 mmHg 85%
    05:00 -4°C° 0 mm 6 mps 776 mmHg 85%
    06:00 -4°C° 0 mm 6 mps 776 mmHg 85%
    07:00 -2°C° 0 mm 6 mps 776 mmHg 78%
    08:00 +2°C° 0 mm 7 mps 776 mmHg 71%
    09:00 +4°C° 0 mm 7 mps 775 mmHg 65%
    10:00 +4°C° 0 mm 7 mps 775 mmHg 66%
    11:00 +5°C° 0 mm 7 mps 775 mmHg 67%
    12:00 +7°C° 0 mm 6 mps 774 mmHg 68%
    13:00 +6°C° 0.1 mm 7 mps 774 mmHg 69%
    14:00 +6°C° 0.1 mm 7 mps 773 mmHg 71%
    15:00 +6°C° 0.1 mm 7 mps 773 mmHg 73%
    16:00 +5°C° 0 mm 7 mps 773 mmHg 74%
    17:00 +5°C° 0 mm 7 mps 772 mmHg 76%
    18:00 +5°C° 0 mm 7 mps 772 mmHg 78%
    19:00 +4°C° 0 mm 7 mps 772 mmHg 82%
    20:00 +3°C° 0 mm 7 mps 772 mmHg 87%
    21:00 +2°C° 0 mm 7 mps 772 mmHg 91%
    22:00 0°C° 0 mm 7 mps 772 mmHg 91%
    23:00 0°C° 0 mm 8 mps 772 mmHg 92%

    Day after tomorrow, 31 March, Tuesday

    Time Temperature Precipitation Wind Pressure Humidity
    00:00 0°C° 0 mm 8 mps 772 mmHg 93%
    01:00 0°C° 0 mm 8 mps 772 mmHg 92%
    02:00 0°C° 0 mm 8 mps 772 mmHg 92%
    03:00 -1°C° 0 mm 8 mps 771 mmHg 92%
    04:00 -1°C° 0 mm 8 mps 771 mmHg 92%
    05:00 -1°C° 0 mm 8 mps 771 mmHg 92%
    06:00 -1°C° 0 mm 8 mps 771 mmHg 92%
    07:00 0°C° 0 mm 8 mps 771 mmHg 86%
    08:00 +1°C° 0 mm 8 mps 771 mmHg 80%
    09:00 +2°C° 0 mm 9 mps 771 mmHg 74%
    10:00 +4°C° 0 mm 8 mps 772 mmHg 72%
    11:00 +5°C° 0 mm 8 mps 772 mmHg 69%
    12:00 +6°C° 0 mm 8 mps 772 mmHg 66%
    13:00 +8°C° 0 mm 7 mps 771 mmHg 66%
    14:00 +8°C° 0 mm 7 mps 771 mmHg 66%
    15:00 +8°C° 0 mm 7 mps 770 mmHg 66%
    16:00 +8°C° 0 mm 6 mps 770 mmHg 69%
    17:00 +7°C° 0 mm 6 mps 770 mmHg 73%
    18:00 +6°C° 0 mm 5 mps 770 mmHg 77%
    19:00 +5°C° 0 mm 5 mps 770 mmHg 81%
    20:00 +3°C° 0 mm 5 mps 770 mmHg 84%
    21:00 +2°C° 0 mm 6 mps 770 mmHg 88%
    22:00 +1°C° 0 mm 5 mps 770 mmHg 89%
    23:00 0°C° 0 mm 5 mps 770 mmHg 89%

    1 April, Wednesday

    Time Temperature Precipitation Wind Pressure Humidity
    00:00 0°C° 0 mm 5 mps 770 mmHg 90%
    01:00 0°C° 0 mm 5 mps 769 mmHg 91%
    02:00 -1°C° 0 mm 4 mps 769 mmHg 91%
    03:00 -1°C° 0 mm 4 mps 768 mmHg 91%
    04:00 -1°C° 0 mm 4 mps 768 mmHg 91%
    05:00 -1°C° 0 mm 4 mps 768 mmHg 91%
    06:00 -1°C° 0 mm 4 mps 768 mmHg 91%
    07:00 +1°C° 0 mm 4 mps 768 mmHg 85%
    08:00 +4°C° 0 mm 4 mps 767 mmHg 79%
    09:00 +6°C° 0 mm 4 mps 767 mmHg 73%
    10:00 +6°C° 0 mm 4 mps 767 mmHg 71%
    11:00 +8°C° 0 mm 3 mps 767 mmHg 70%
    12:00 +8°C° 0 mm 3 mps 767 mmHg 68%
    13:00 +8°C° 0 mm 3 mps 767 mmHg 68%
    14:00 +8°C° 0 mm 3 mps 766 mmHg 68%
    15:00 +8°C° 0 mm 3 mps 766 mmHg 67%
    16:00 +8°C° 0 mm 3 mps 765 mmHg 69%
    17:00 +6°C° 0 mm 4 mps 765 mmHg 71%
    18:00 +6°C° 0 mm 4 mps 765 mmHg 73%
    19:00 +5°C° 0 mm 3 mps 765 mmHg 75%
    20:00 +4°C° 0 mm 3 mps 765 mmHg 78%
    21:00 +4°C° 0 mm 3 mps 765 mmHg 80%
    22:00 +3°C° 0 mm 3 mps 765 mmHg 83%
    23:00 +2°C° 0 mm 3 mps 765 mmHg 86%

    2 April, Thursday

    Time Temperature Precipitation Wind Pressure Humidity
    00:00 +2°C° 0 mm 3 mps 765 mmHg 89%
    01:00 +2°C° 0 mm 3 mps 764 mmHg 90%
    02:00 +2°C° 0 mm 3 mps 764 mmHg 90%
    03:00 +2°C° 0 mm 3 mps 764 mmHg 91%
    04:00 +2°C° 0 mm 3 mps 763 mmHg 90%
    05:00 +3°C° 0 mm 3 mps 763 mmHg 89%
    06:00 +3°C° 0 mm 3 mps 763 mmHg 88%
    07:00 +5°C° 0 mm 3 mps 763 mmHg 84%
    08:00 +6°C° 0 mm 4 mps 763 mmHg 80%
    09:00 +8°C° 0 mm 4 mps 763 mmHg 75%
    10:00 +10°C° 0 mm 4 mps 763 mmHg 74%
    11:00 +10°C° 0 mm 4 mps 763 mmHg 72%
    12:00 +11°C° 0 mm 4 mps 763 mmHg 71%
    13:00 +10°C° 0.1 mm 5 mps 762 mmHg 72%
    14:00 +10°C° 0.1 mm 5 mps 762 mmHg 73%
    15:00 +10°C° 0.1 mm 6 mps 762 mmHg 74%
    16:00 +9°C° 0 mm 6 mps 761 mmHg 78%
    17:00 +8°C° 0 mm 6 mps 761 mmHg 82%
    18:00 +7°C° 0 mm 5 mps 761 mmHg 86%
    19:00 +7°C° 0 mm 5 mps 761 mmHg 90%
    20:00 +6°C° 0 mm 5 mps 761 mmHg 93%
    21:00 +5°C° 0 mm 5 mps 761 mmHg 96%
    22:00 +5°C° 0 mm 5 mps 761 mmHg 96%
    23:00 +5°C° 0 mm 4 mps 761 mmHg 96%

    3 April, Friday

    Time Temperature Precipitation Wind Pressure Humidity
    00:00 +5°C° 0 mm 4 mps 761 mmHg 96%
    01:00 +4°C° 0 mm 4 mps 761 mmHg 96%
    02:00 +4°C° 0 mm 3 mps 761 mmHg 96%
    03:00 +4°C° 0 mm 3 mps 761 mmHg 96%
    04:00 +4°C° 0 mm 3 mps 761 mmHg 93%
    05:00 +4°C° 0 mm 3 mps 762 mmHg 91%
    06:00 +4°C° 0 mm 3 mps 762 mmHg 89%
    07:00 +5°C° 0 mm 3 mps 762 mmHg 85%
    08:00 +7°C° 0 mm 3 mps 763 mmHg 81%
    09:00 +8°C° 0 mm 3 mps 763 mmHg 77%
    10:00 +8°C° 0 mm 2 mps 763 mmHg 74%
    11:00 +8°C° 0 mm 2 mps 764 mmHg 70%
    12:00 +9°C° 0 mm 2 mps 764 mmHg 67%
    13:00 +9°C° 0 mm 2 mps 764 mmHg 66%
    14:00 +9°C° 0 mm 2 mps 764 mmHg 66%
    15:00 +9°C° 0 mm 2 mps 764 mmHg 65%
    16:00 +8°C° 0 mm 2 mps 764 mmHg 69%
    17:00 +8°C° 0 mm 2 mps 764 mmHg 72%
    18:00 +7°C° 0 mm 2 mps 764 mmHg 76%
    19:00 +6°C° 0 mm 2 mps 764 mmHg 78%
    20:00 +5°C° 0 mm 2 mps 764 mmHg 80%
    21:00 +5°C° 0 mm 1 mps 765 mmHg 82%
    22:00 +5°C° 0 mm 1 mps 765 mmHg 82%
    23:00 +5°C° 0 mm 1 mps 765 mmHg 82%
    Show more